FW9555 Weather Reports


Display with metric or nautical units.
time (UTC)temp
F
wind
direction
speed
MPH
gust
MPH
rain 1hr
in
rain 24hr
in
rain mn
in
humidity
%
barometer
mb
20260504160257 72 77 0.0 0.0 0.00 0.00 0.00 46 1020.3
20260504150722 69 297 3.0 3.0 0.00 0.00 0.00 51 1020.9
20260504150219 67 354 0.0 2.0 0.00 0.00 0.00 47 1020.7
20260504141148 62 345 0.0 2.0 0.00 0.00 0.00 65 1020.6
20260504140645 62 8 0.0 1.0 0.00 0.00 0.00 64 1020.6
20260504140140 61 99 0.0 0.0 0.00 0.00 0.00 71 1020.5
20260504130609 53 54 0.0 0.0 0.00 0.00 0.00 79 1020.7
20260504130105 53 337 1.0 2.0 0.00 0.00 0.00 79 1020.6
20260504110456 41 126 0.0 1.0 0.00 0.00 0.00 98 1020.5
20260504100419 41 105 1.0 1.0 0.00 0.00 0.00 98 1019.8
20260504081812 43 75 0.0 0.0 0.00 0.00 0.00 95 1019.6
20260504081309 44 74 0.0 0.0 0.00 0.00 0.00 95 1019.6
20260504080804 44 98 0.0 1.0 0.00 0.00 0.00 95 1019.5
20260504080301 44 66 0.0 1.0 0.00 0.00 0.00 95 1019.4
20260504070229 45 74 0.0 0.0 0.00 0.00 0.00 93 1019.7
20260504060149 47 90 0.0 0.0 0.00 0.00 0.00 88 1019.8
20260504050617 48 82 0.0 0.0 0.00 0.00 0.00 86 1019.7
20260504050115 48 82 0.0 0.0 0.00 0.00 0.00 86 1019.9
20260504045612 48 74 0.0 0.0 0.00 0.00 0.00 86 1019.7
20260504045106 48 74 0.0 0.0 0.00 0.00 0.00 85 1019.8
20260504044605 48 74 0.0 1.0 0.00 0.00 0.00 85 1019.9
20260504044101 48 81 0.0 0.0 0.00 0.00 0.00 85 1019.7
20260504043558 48 81 0.0 0.0 0.00 0.00 0.00 85 1020.0
20260504043055 48 81 0.0 1.0 0.00 0.00 0.00 84 1019.8
20260504042552 48 60 0.0 1.0 0.00 0.00 0.00 84 1019.8
20260504042049 48 74 0.0 0.0 0.00 0.00 0.00 83 1020.0
20260504041545 49 74 0.0 0.0 0.00 0.00 0.00 83 1019.9
20260504041041 49 75 0.0 0.0 0.00 0.00 0.00 83 1020.0
20260504040539 49 8 0.0 1.0 0.00 0.00 0.00 83 1019.9
20260504040035 49 352 0.0 0.0 0.00 0.00 0.00 82 1020.3
20260504035532 49 352 0.0 0.0 0.00 0.00 0.00 82 1020.0
20260504035029 49 352 0.0 0.0 0.00 0.00 0.00 82 1020.0
20260504034527 49 90 0.0 0.0 0.00 0.00 0.00 81 1020.4
20260504034023 49 90 0.0 1.0 0.00 0.00 0.00 81 1020.4
20260504033521 49 69 0.0 1.0 0.00 0.00 0.00 81 1020.1
20260504033018 49 82 0.0 2.0 0.00 0.00 0.00 81 1020.0
20260504032515 49 54 0.0 0.0 0.00 0.00 0.00 80 1020.0
20260504032012 50 0 0.0 0.0 0.00 0.00 0.00 80 1020.1
20260504031509 50 14 0.0 1.0 0.00 0.00 0.00 80 1020.3
20260504031005 50 172 0.0 0.0 0.00 0.00 0.00 79 1020.4
20260504030503 50 15 0.0 0.0 0.00 0.00 0.00 79 1020.0
20260504025958 50 151 0.0 0.0 0.00 0.00 0.00 79 1020.4
20260504025455 50 151 0.0 1.0 0.00 0.00 0.00 79 1020.1
20260504024952 50 81 0.0 1.0 0.00 0.00 0.00 79 1020.1
20260504024449 50 81 0.0 0.0 0.00 0.00 0.00 78 1020.0
20260504023946 50 74 0.0 0.0 0.00 0.00 0.00 77 1019.9
20260504023443 50 90 0.0 0.0 0.00 0.00 0.00 77 1019.9
20260504022938 50 90 0.0 0.0 0.00 0.00 0.00 76 1020.0
20260504022435 51 81 0.0 0.0 0.00 0.00 0.00 76 1019.9
20260504021932 51 8 0.0 0.0 0.00 0.00 0.00 76 1019.8
20260504021429 51 0 0.0 0.0 0.00 0.00 0.00 75 1019.6
20260504020926 51 0 0.0 0.0 0.00 0.00 0.00 74 1019.8
20260504020423 51 0 0.0 0.0 0.00 0.00 0.00 73 1019.6
20260504015919 51 0 0.0 0.0 0.00 0.00 0.00 74 1019.4
20260504015415 51 0 0.0 0.0 0.00 0.00 0.00 74 1019.5
20260504014912 52 0 0.0 0.0 0.00 0.00 0.00 73 1019.4
20260504014408 52 0 0.0 0.0 0.00 0.00 0.00 71 1019.1
20260504013905 52 0 0.0 0.0 0.00 0.00 0.00 72 1019.1
20260504013403 52 0 0.0 0.0 0.00 0.00 0.00 70 1019.4
20260504012859 53 23 0.0 0.0 0.00 0.00 0.00 69 1019.2
20260504012357 52 0 0.0 0.0 0.00 0.00 0.00 70 1019.2
20260504011854 53 35 0.0 0.0 0.00 0.00 0.00 70 1019.1
20260504011350 53 35 0.0 0.0 0.00 0.00 0.00 67 1019.1
20260504010846 54 35 0.0 0.0 0.00 0.00 0.00 66 1019.0
20260504010342 54 35 0.0 0.0 0.00 0.00 0.00 66 1019.0
20260504005839 55 0 0.0 0.0 0.00 0.00 0.00 66 1018.8
20260504005336 55 0 0.0 0.0 0.00 0.00 0.00 64 1019.1
20260504004833 55 0 0.0 0.0 0.00 0.00 0.00 61 1018.9
20260504004331 56 0 0.0 0.0 0.00 0.00 0.00 61 1018.8
20260504003827 56 0 0.0 0.0 0.00 0.00 0.00 59 1019.0
20260504003324 57 0 0.0 0.0 0.00 0.00 0.00 58 1018.8
20260504002821 58 0 0.0 0.0 0.00 0.00 0.00 58 1018.9
20260504002318 59 0 0.0 0.0 0.00 0.00 0.00 57 1018.7
20260504001815 59 0 0.0 0.0 0.00 0.00 0.00 57 1018.6
20260504001313 60 0 0.0 0.0 0.00 0.00 0.00 54 1018.7
20260504000809 61 0 0.0 0.0 0.00 0.00 0.00 52 1018.9
20260504000306 62 279 0.0 0.0 0.00 0.00 0.00 50 1018.4
20260503235804 64 279 0.0 0.0 0.00 0.00 0.00 49 1018.7
20260503235301 66 279 0.0 0.0 0.00 0.00 0.00 45 1018.5
20260503234759 69 279 0.0 0.0 0.00 0.00 0.00 41 1018.5
20260503234257 70 279 0.0 0.0 0.00 0.00 0.00 40 1018.3
20260503233754 72 286 0.0 0.0 0.00 0.00 0.00 39 1018.7
20260503233249 73 286 0.0 0.0 0.00 0.00 0.00 39 1018.4
20260503232747 75 286 0.0 0.0 0.00 0.00 0.00 36 1018.4
20260503232244 75 286 0.0 1.0 0.00 0.00 0.00 34 1018.5
20260503231742 76 294 0.0 1.0 0.00 0.00 0.00 35 1018.3
20260503231239 76 23 0.0 0.0 0.00 0.00 0.00 35 1018.3
20260503230734 75 345 1.0 2.0 0.00 0.00 0.00 34 1018.4
20260503230232 75 286 0.0 1.0 0.00 0.00 0.00 32 1018.4
20260503225729 76 354 0.0 0.0 0.00 0.00 0.00 37 1018.2
20260503225229 74 0 0.0 1.0 0.00 0.00 0.00 36 1018.5
20260503224726 73 60 0.0 2.0 0.00 0.00 0.00 33 1018.4
20260503224224 74 26 1.0 2.0 0.00 0.00 0.00 30 1018.6
20260503223722 74 270 0.0 1.0 0.00 0.00 0.00 38 1018.8
20260503223219 71 270 2.0 3.0 0.00 0.00 0.00 34 1018.6
20260503222715 72 338 3.0 5.0 0.00 0.00 0.00 33 1018.7
20260503222213 73 74 0.0 2.0 0.00 0.00 0.00 35 1018.8
20260503221712 72 60 0.0 3.0 0.00 0.00 0.00 37 1018.9
20260503221209 71 294 2.0 4.0 0.00 0.00 0.00 34 1018.9
20260503220705 71 300 0.0 4.0 0.00 0.00 0.00 36 1018.7
20260503220202 71 234 0.0 8.0 0.00 0.00 0.00 36 1018.8
20260503215659 72 297 2.0 3.0 0.00 0.00 0.00 35 1018.8
20260503215155 74 285 1.0 1.0 0.00 0.00 0.00 38 1018.9
20260503214654 72 103 0.0 2.0 0.00 0.00 0.00 35 1019.1
20260503214149 72 12 6.0 6.0 0.00 0.00 0.00 35 1019.1
20260503213643 72 38 2.0 7.0 0.00 0.00 0.00 31 1019.0
20260503213140 75 81 0.0 0.0 0.00 0.00 0.00 36 1019.2
20260503212637 72 28 2.0 2.0 0.00 0.00 0.00 36 1019.3
20260503212134 72 99 0.0 3.0 0.00 0.00 0.00 39 1019.1
20260503211632 72 334 5.0 5.0 0.00 0.00 0.00 33 1019.3
20260503211127 70 0 2.0 7.0 0.00 0.00 0.00 36 1019.6
20260503210624 70 332 4.0 6.0 0.00 0.00 0.00 33 1019.4
20260503210121 69 322 4.0 5.0 0.00 0.00 0.00 33 1019.3
20260503205616 71 253 3.0 3.0 0.00 0.00 0.00 35 1019.4
20260503205113 72 26 0.0 3.0 0.00 0.00 0.00 35 1019.5
20260503204610 72 337 0.0 1.0 0.00 0.00 0.00 31 1019.6
20260503204107 70 9 2.0 7.0 0.00 0.00 0.00 34 1019.6
20260503203604 69 342 3.0 11.0 0.00 0.00 0.00 35 1020.0
20260503203101 71 278 2.0 5.0 0.00 0.00 0.00 38 1019.5
20260503202559 71 285 3.0 5.0 0.00 0.00 0.00 34 1019.8
20260503202057 72 0 0.0 2.0 0.00 0.00 0.00 36 1020.0
20260503201555 70 353 0.0 7.0 0.00 0.00 0.00 36 1019.7
20260503201052 69 0 2.0 5.0 0.00 0.00 0.00 35 1020.1
20260503200548 70 337 0.0 4.0 0.00 0.00 0.00 44 1020.1
20260503200044 71 270 1.0 5.0 0.00 0.00 0.00 36 1020.1
20260503195542 72 346 0.0 6.0 0.00 0.00 0.00 38 1020.3
20260503195038 73 311 2.0 2.0 0.00 0.00 0.00 37 1020.1
20260503194536 70 90 0.0 4.0 0.00 0.00 0.00 40 1020.1
20260503194035 69 250 2.0 7.0 0.00 0.00 0.00 35 1020.1
20260503193532 69 264 1.0 5.0 0.00 0.00 0.00 34 1020.6
20260503193027 69 79 0.0 2.0 0.00 0.00 0.00 39 1020.5
20260503192524 69 277 3.0 6.0 0.00 0.00 0.00 38 1020.7
20260503192020 67 38 3.0 3.0 0.00 0.00 0.00 36 1020.8
20260503191517 67 103 1.0 7.0 0.00 0.00 0.00 37 1021.0
20260503191014 70 258 4.0 5.0 0.00 0.00 0.00 43 1020.8
20260503190510 70 297 0.0 5.0 0.00 0.00 0.00 39 1021.0
20260503190008 71 277 1.0 2.0 0.00 0.00 0.00 46 1021.2
20260503185504 68 286 2.0 4.0 0.00 0.00 0.00 36 1021.1
20260503185004 68 334 3.0 4.0 0.00 0.00 0.00 38 1021.1
20260503184500 67 291 0.0 6.0 0.00 0.00 0.00 41 1021.2
20260503183956 67 317 4.0 6.0 0.00 0.00 0.00 42 1021.4
20260503183453 66 61 2.0 6.0 0.00 0.00 0.00 40 1021.2
20260503182950 66 348 1.0 11.0 0.00 0.00 0.00 38 1021.6
20260503182449 67 342 3.0 5.0 0.00 0.00 0.00 44 1021.2
20260503181946 68 349 0.0 4.0 0.00 0.00 0.00 42 1021.6
20260503181443 69 254 2.0 4.0 0.00 0.00 0.00 44 1021.5
20260503180939 66 90 1.0 4.0 0.00 0.00 0.00 43 1021.5
20260503180438 66 297 2.0 5.0 0.00 0.00 0.00 42 1021.6
20260503175934 66 276 2.0 5.0 0.00 0.00 0.00 38 1021.7
20260503175432 65 7 1.0 7.0 0.00 0.00 0.00 40 1021.8
20260503174928 65 356 4.0 8.0 0.00 0.00 0.00 41 1022.0
20260503174426 65 288 2.0 3.0 0.00 0.00 0.00 39 1021.9
20260503173926 65 85 2.0 6.0 0.00 0.00 0.00 37 1022.0
20260503173422 65 12 4.0 6.0 0.00 0.00 0.00 44 1022.3
20260503172919 64 151 3.0 7.0 0.00 0.00 0.00 39 1022.3
20260503172417 64 354 1.0 6.0 0.00 0.00 0.00 40 1022.1
20260503171913 65 321 5.0 5.0 0.00 0.00 0.00 45 1022.3
20260503171410 65 354 3.0 6.0 0.00 0.00 0.00 41 1022.3
20260503170907 63 5 0.0 5.0 0.00 0.00 0.00 40 1022.4
20260503170403 64 11 3.0 4.0 0.00 0.00 0.00 41 1022.6